Time,TemperatureF,DewpointF,PressureIn,WindDirection,WindDirectionDegrees,WindSpeedMPH,WindSpeedGustMPH,Humidity,HourlyPrecipIn,Conditions,Clouds,dailyrainin,SoftwareType,DateUTC
2013-03-22 00:04:00,31.0,15.0,29.67,West,281,5.0,11.0,52,0.00,,,0.02,,2013-03-22 04:04:00,
2013-03-22 00:12:00,31.0,15.0,29.67,West,281,5.0,11.0,52,0.00,,,0.02,,2013-03-22 04:12:00,
2013-03-22 00:23:00,30.0,14.0,29.67,West,275,6.0,11.0,50,0.00,,,0.02,,2013-03-22 04:23:00,
2013-03-22 00:32:00,30.0,14.0,29.67,WNW,286,6.0,10.0,50,0.00,,,0.02,,2013-03-22 04:32:00,
2013-03-22 00:43:00,30.0,14.0,29.67,WNW,286,6.0,10.0,50,0.00,,,0.02,,2013-03-22 04:43:00,
2013-03-22 00:52:00,30.0,14.0,29.67,WNW,302,4.0,11.0,51,0.00,,,0.02,,2013-03-22 04:52:00,
2013-03-22 01:02:00,30.0,14.0,29.68,WNW,286,4.0,10.0,50,0.00,,,0.02,,2013-03-22 05:02:00,
2013-03-22 01:12:00,30.0,14.0,29.68,WNW,286,4.0,10.0,50,0.00,,,0.02,,2013-03-22 05:12:00,
2013-03-22 01:22:00,30.0,14.0,29.68,West,278,6.0,11.0,51,0.00,,,0.02,,2013-03-22 05:22:00,
2013-03-22 01:32:00,29.0,14.0,29.68,WNW,283,5.0,9.0,52,0.00,,,0.02,,2013-03-22 05:32:00,
2013-03-22 01:42:00,29.0,14.0,29.68,WNW,283,5.0,9.0,52,0.00,,,0.02,,2013-03-22 05:42:00,
2013-03-22 01:52:00,29.0,14.0,29.68,WNW,286,6.0,11.0,52,0.00,,,0.02,,2013-03-22 05:52:00,
2013-03-22 02:02:00,29.0,14.0,29.69,WNW,291,4.0,7.0,53,0.00,,,0.02,,2013-03-22 06:02:00,
2013-03-22 02:13:00,29.0,14.0,29.69,WNW,291,4.0,7.0,53,0.00,,,0.02,,2013-03-22 06:13:00,
2013-03-22 02:22:00,29.0,14.0,29.69,West,276,3.0,7.0,53,0.00,,,0.02,,2013-03-22 06:22:00,
2013-03-22 02:32:00,29.0,14.0,29.69,West,280,3.0,6.0,54,0.00,,,0.02,,2013-03-22 06:32:00,
2013-03-22 02:42:00,29.0,14.0,29.69,West,280,3.0,6.0,54,0.00,,,0.02,,2013-03-22 06:42:00,
2013-03-22 02:52:00,29.0,14.0,29.69,WNW,286,4.0,7.0,53,0.00,,,0.02,,2013-03-22 06:52:00,
2013-03-22 03:03:00,28.0,13.0,29.68,West,280,4.0,7.0,52,0.00,,,0.02,,2013-03-22 07:03:00,
2013-03-22 03:12:00,28.0,13.0,29.68,West,280,4.0,7.0,52,0.00,,,0.02,,2013-03-22 07:12:00,
2013-03-22 03:22:00,28.0,13.0,29.68,West,280,3.0,6.0,52,0.00,,,0.02,,2013-03-22 07:22:00,
2013-03-22 03:32:00,28.0,13.0,29.68,West,277,2.0,6.0,52,0.00,,,0.02,,2013-03-22 07:32:00,
2013-03-22 03:42:00,28.0,13.0,29.68,West,277,2.0,6.0,52,0.00,,,0.02,,2013-03-22 07:42:00,
2013-03-22 03:52:00,28.0,13.0,29.68,WNW,285,5.0,8.0,52,0.00,,,0.02,,2013-03-22 07:52:00,
2013-03-22 04:03:00,28.0,13.0,29.67,WNW,290,7.0,10.0,52,0.00,,,0.02,,2013-03-22 08:03:00,
2013-03-22 04:13:00,28.0,13.0,29.67,WNW,290,7.0,10.0,52,0.00,,,0.02,,2013-03-22 08:13:00,
2013-03-22 04:22:00,28.0,13.0,29.67,WNW,292,6.0,11.0,52,0.00,,,0.02,,2013-03-22 08:22:00,
2013-03-22 04:32:00,28.0,13.0,29.67,West,281,5.0,10.0,53,0.00,,,0.02,,2013-03-22 08:32:00,
2013-03-22 04:42:00,28.0,13.0,29.67,West,281,5.0,10.0,53,0.00,,,0.02,,2013-03-22 08:42:00,
2013-03-22 04:52:00,28.0,14.0,29.67,WNW,290,5.0,8.0,54,0.00,,,0.02,,2013-03-22 08:52:00,
2013-03-22 05:03:00,28.0,14.0,29.67,West,280,5.0,9.0,55,0.00,,,0.02,,2013-03-22 09:03:00,
2013-03-22 05:12:00,28.0,14.0,29.67,West,280,5.0,9.0,55,0.00,,,0.02,,2013-03-22 09:12:00,
2013-03-22 05:22:00,28.0,14.0,29.67,WNW,284,5.0,9.0,56,0.00,,,0.02,,2013-03-22 09:22:00,
2013-03-22 05:33:00,28.0,15.0,29.67,West,275,4.0,10.0,57,0.00,,,0.02,,2013-03-22 09:33:00,
2013-03-22 05:42:00,28.0,15.0,29.67,West,275,4.0,10.0,57,0.00,,,0.02,,2013-03-22 09:42:00,
2013-03-22 05:53:00,28.0,15.0,29.67,West,277,5.0,12.0,58,0.00,,,0.02,,2013-03-22 09:53:00,
2013-03-22 06:04:00,28.0,16.0,29.68,WNW,282,5.0,13.0,59,0.00,,,0.02,,2013-03-22 10:04:00,
2013-03-22 06:12:00,28.0,16.0,29.68,WNW,282,5.0,13.0,59,0.00,,,0.02,,2013-03-22 10:12:00,
2013-03-22 06:22:00,28.0,16.0,29.68,West,277,4.0,10.0,59,0.00,,,0.02,,2013-03-22 10:22:00,
2013-03-22 06:33:00,28.0,16.0,29.69,West,271,3.0,8.0,60,0.00,,,0.02,,2013-03-22 10:33:00,
2013-03-22 06:42:00,28.0,16.0,29.69,West,271,3.0,8.0,60,0.00,,,0.02,,2013-03-22 10:42:00,
2013-03-22 06:52:00,28.0,16.0,29.69,West,279,4.0,8.0,61,0.00,,,0.02,,2013-03-22 10:52:00,
2013-03-22 07:03:00,27.0,16.0,29.70,West,273,4.0,9.0,62,0.00,,,0.02,,2013-03-22 11:03:00,
2013-03-22 07:12:00,27.0,16.0,29.70,West,273,4.0,9.0,62,0.00,,,0.02,,2013-03-22 11:12:00,
2013-03-22 07:22:00,27.0,16.0,29.70,WNW,284,4.0,9.0,62,0.00,,,0.02,,2013-03-22 11:22:00,
2013-03-22 07:33:00,28.0,17.0,29.70,West,281,5.0,8.0,63,0.00,,,0.02,,2013-03-22 11:33:00,
2013-03-22 07:42:00,28.0,17.0,29.70,West,281,5.0,8.0,63,0.00,,,0.02,,2013-03-22 11:42:00,
2013-03-22 07:52:00,28.0,17.0,29.70,WNW,296,5.0,10.0,63,0.00,,,0.02,,2013-03-22 11:52:00,
2013-03-22 08:02:00,29.0,18.0,29.71,West,263,8.0,12.0,62,0.00,,,0.02,,2013-03-22 12:02:00,
2013-03-22 08:12:00,29.0,18.0,29.71,NW,325,9.0,17.0,62,0.00,,,0.02,,2013-03-22 12:12:00,
2013-03-22 08:22:00,29.0,18.0,29.71,NW,325,9.0,17.0,62,0.00,,,0.02,,2013-03-22 12:22:00,
2013-03-22 08:32:00,30.0,19.0,29.73,WNW,290,7.0,15.0,62,0.00,,,0.02,,2013-03-22 12:32:00,
2013-03-22 08:42:00,30.0,19.0,29.73,WNW,290,7.0,15.0,62,0.00,,,0.02,,2013-03-22 12:42:00,
2013-03-22 08:52:00,30.0,18.0,29.73,WNW,285,7.0,13.0,61,0.00,,,0.02,,2013-03-22 12:52:00,
2013-03-22 09:02:00,31.0,19.0,29.73,West,278,9.0,18.0,60,0.00,,,0.02,,2013-03-22 13:02:00,
2013-03-22 09:12:00,31.0,19.0,29.73,West,278,9.0,18.0,60,0.00,,,0.02,,2013-03-22 13:12:00,
2013-03-22 09:22:00,31.0,18.0,29.73,WNW,284,7.0,13.0,59,0.00,,,0.02,,2013-03-22 13:22:00,
2013-03-22 09:32:00,32.0,18.0,29.73,WNW,296,9.0,15.0,56,0.00,,,0.02,,2013-03-22 13:32:00,
2013-03-22 09:42:00,32.0,18.0,29.73,WNW,296,9.0,15.0,56,0.00,,,0.02,,2013-03-22 13:42:00,
2013-03-22 09:52:00,32.0,18.0,29.73,NW,324,8.0,20.0,55,0.00,,,0.02,,2013-03-22 13:52:00,
2013-03-22 10:03:00,33.0,17.0,29.74,WNW,302,10.0,17.0,52,0.00,,,0.02,,2013-03-22 14:03:00,
2013-03-22 10:12:00,33.0,17.0,29.74,WNW,302,10.0,17.0,52,0.00,,,0.02,,2013-03-22 14:12:00,
2013-03-22 10:22:00,33.0,17.0,29.74,WNW,296,7.0,17.0,52,0.00,,,0.02,,2013-03-22 14:22:00,
2013-03-22 10:32:00,34.0,17.0,29.73,WNW,298,14.0,22.0,50,0.00,,,0.02,,2013-03-22 14:32:00,
2013-03-22 10:42:00,34.0,17.0,29.73,WNW,298,14.0,22.0,50,0.00,,,0.02,,2013-03-22 14:42:00,
2013-03-22 10:52:00,34.0,17.0,29.73,WNW,297,10.0,19.0,50,0.00,,,0.02,,2013-03-22 14:52:00,
2013-03-22 11:03:00,35.0,17.0,29.74,WNW,287,11.0,22.0,48,0.00,,,0.02,,2013-03-22 15:03:00,
2013-03-22 11:12:00,35.0,17.0,29.74,WNW,287,11.0,22.0,48,0.00,,,0.02,,2013-03-22 15:12:00,
2013-03-22 11:22:00,35.0,17.0,29.74,NW,306,13.0,19.0,47,0.00,,,0.02,,2013-03-22 15:22:00,
2013-03-22 11:33:00,36.0,17.0,29.73,WNW,294,11.0,21.0,46,0.00,,,0.02,,2013-03-22 15:33:00,
2013-03-22 11:43:00,36.0,17.0,29.73,WNW,294,11.0,21.0,46,0.00,,,0.02,,2013-03-22 15:43:00,
2013-03-22 11:52:00,36.0,17.0,29.73,WNW,283,13.0,21.0,45,0.00,,,0.02,,2013-03-22 15:52:00,
2013-03-22 12:03:00,36.0,18.0,29.73,NNW,344,9.0,18.0,47,0.00,,,0.02,,2013-03-22 16:03:00,
2013-03-22 12:13:00,36.0,17.0,29.73,NW,309,8.0,18.0,46,0.00,,,0.02,,2013-03-22 16:13:00,
2013-03-22 12:23:00,36.0,17.0,29.73,NW,309,8.0,18.0,46,0.00,,,0.02,,2013-03-22 16:23:00,
2013-03-22 12:32:00,38.0,16.0,29.72,West,279,10.0,20.0,41,0.00,,,0.02,,2013-03-22 16:32:00,
2013-03-22 12:42:00,38.0,18.0,29.72,WNW,292,10.0,18.0,43,0.00,,,0.02,,2013-03-22 16:42:00,
2013-03-22 12:52:00,38.0,18.0,29.72,WNW,292,10.0,18.0,43,0.00,,,0.02,,2013-03-22 16:52:00,
2013-03-22 13:03:00,38.0,16.0,29.72,WNW,300,8.0,28.0,41,0.00,,,0.02,,2013-03-22 17:03:00,
2013-03-22 13:12:00,38.0,15.0,29.72,WNW,301,10.0,21.0,39,0.00,,,0.02,,2013-03-22 17:12:00,
2013-03-22 13:23:00,38.0,15.0,29.72,WNW,301,10.0,21.0,39,0.00,,,0.02,,2013-03-22 17:23:00,
2013-03-22 13:32:00,39.0,16.0,29.72,NW,325,10.0,20.0,38,0.00,,,0.02,,2013-03-22 17:32:00,
2013-03-22 13:42:00,39.0,16.0,29.72,NW,325,10.0,20.0,38,0.00,,,0.02,,2013-03-22 17:42:00,
2013-03-22 13:52:00,39.0,14.0,29.72,NW,308,12.0,20.0,35,0.00,,,0.02,,2013-03-22 17:52:00,
2013-03-22 14:02:00,40.0,15.0,29.71,WNW,301,13.0,21.0,35,0.00,,,0.02,,2013-03-22 18:02:00,
2013-03-22 14:12:00,40.0,15.0,29.71,WNW,301,13.0,21.0,35,0.00,,,0.02,,2013-03-22 18:12:00,
2013-03-22 14:22:00,40.0,16.0,29.71,WNW,286,9.0,17.0,37,0.00,,,0.02,,2013-03-22 18:22:00,
2013-03-22 14:33:00,40.0,15.0,29.71,WNW,295,11.0,19.0,35,0.00,,,0.02,,2013-03-22 18:33:00,
2013-03-22 14:42:00,40.0,15.0,29.71,WNW,295,11.0,19.0,35,0.00,,,0.02,,2013-03-22 18:42:00,
2013-03-22 14:52:00,40.0,16.0,29.71,West,281,9.0,23.0,38,0.00,,,0.02,,2013-03-22 18:52:00,
2013-03-22 15:02:00,40.0,16.0,29.71,WNW,301,8.0,20.0,37,0.00,,,0.02,,2013-03-22 19:02:00,
2013-03-22 15:12:00,40.0,16.0,29.71,WNW,301,8.0,20.0,37,0.00,,,0.02,,2013-03-22 19:12:00,
2013-03-22 15:22:00,40.0,16.0,29.71,NW,307,7.0,17.0,37,0.00,,,0.02,,2013-03-22 19:22:00,
2013-03-22 15:32:00,41.0,15.0,29.70,WNW,295,6.0,17.0,35,0.00,,,0.02,,2013-03-22 19:32:00,
2013-03-22 15:42:00,41.0,15.0,29.70,WNW,295,6.0,17.0,35,0.00,,,0.02,,2013-03-22 19:42:00,
2013-03-22 15:52:00,41.0,15.0,29.70,WNW,289,7.0,20.0,34,0.00,,,0.02,,2013-03-22 19:52:00,
2013-03-22 16:02:00,41.0,15.0,29.71,West,274,11.0,23.0,35,0.00,,,0.02,,2013-03-22 20:02:00,
2013-03-22 16:12:00,41.0,15.0,29.71,West,274,11.0,23.0,35,0.00,,,0.02,,2013-03-22 20:12:00,
2013-03-22 16:22:00,41.0,15.0,29.71,NW,306,9.0,17.0,35,0.00,,,0.02,,2013-03-22 20:22:00,
2013-03-22 16:32:00,40.0,16.0,29.71,WSW,244,9.0,15.0,37,0.00,,,0.01,,2013-03-22 20:32:00,
2013-03-22 16:43:00,40.0,16.0,29.71,WSW,244,9.0,15.0,37,0.00,,,0.01,,2013-03-22 20:43:00,
2013-03-22 16:52:00,41.0,15.0,29.71,West,281,9.0,19.0,35,0.00,,,0.01,,2013-03-22 20:52:00,
2013-03-22 17:03:00,41.0,16.0,29.72,West,279,8.0,23.0,36,0.00,,,0.01,,2013-03-22 21:03:00,
2013-03-22 17:12:00,41.0,16.0,29.72,West,274,10.0,17.0,36,0.00,,,0.01,,2013-03-22 21:12:00,
2013-03-22 17:22:00,41.0,16.0,29.72,West,274,10.0,17.0,36,0.00,,,0.01,,2013-03-22 21:22:00,
2013-03-22 17:33:00,41.0,15.0,29.72,WNW,290,9.0,19.0,35,0.00,,,0.01,,2013-03-22 21:33:00,
2013-03-22 17:43:00,41.0,15.0,29.72,WNW,290,9.0,19.0,35,0.00,,,0.01,,2013-03-22 21:43:00,
2013-03-22 17:53:00,41.0,15.0,29.72,WNW,285,12.0,18.0,34,0.00,,,0.01,,2013-03-22 21:53:00,
2013-03-22 18:03:00,41.0,15.0,29.72,West,269,8.0,16.0,34,0.00,,,0.01,,2013-03-22 22:03:00,
2013-03-22 18:12:00,41.0,15.0,29.72,West,269,8.0,16.0,34,0.00,,,0.01,,2013-03-22 22:12:00,
2013-03-22 18:23:00,41.0,15.0,29.72,WNW,290,11.0,19.0,34,0.00,,,0.01,,2013-03-22 22:23:00,
2013-03-22 18:32:00,41.0,17.0,29.74,WNW,292,6.0,17.0,37,0.00,,,0.01,,2013-03-22 22:32:00,
2013-03-22 18:43:00,41.0,17.0,29.74,WNW,292,6.0,17.0,37,0.00,,,0.01,,2013-03-22 22:43:00,
2013-03-22 18:52:00,41.0,17.0,29.74,West,280,14.0,23.0,38,0.00,,,0.01,,2013-03-22 22:52:00,
2013-03-22 19:02:00,41.0,19.0,29.75,NW,313,8.0,16.0,40,0.00,,,0.01,,2013-03-22 23:02:00,
2013-03-22 19:12:00,41.0,19.0,29.75,NW,313,8.0,16.0,40,0.00,,,0.01,,2013-03-22 23:12:00,
2013-03-22 19:22:00,40.0,18.0,29.75,WNW,288,6.0,16.0,41,0.00,,,0.01,,2013-03-22 23:22:00,
2013-03-22 19:32:00,39.0,18.0,29.76,WNW,295,5.0,14.0,43,0.00,,,0.01,,2013-03-22 23:32:00,
2013-03-22 19:42:00,39.0,18.0,29.76,WNW,295,5.0,14.0,43,0.00,,,0.01,,2013-03-22 23:42:00,
2013-03-22 19:52:00,39.0,19.0,29.76,West,276,3.0,10.0,44,0.00,,,0.01,,2013-03-22 23:52:00,
2013-03-22 20:02:00,39.0,19.0,29.78,West,277,5.0,14.0,44,0.00,,,0.01,,2013-03-23 00:02:00,
2013-03-22 20:12:00,39.0,19.0,29.78,West,277,5.0,14.0,44,0.00,,,0.01,,2013-03-23 00:12:00,
2013-03-22 20:23:00,39.0,19.0,29.78,WNW,292,6.0,11.0,44,0.00,,,0.01,,2013-03-23 00:23:00,
2013-03-22 20:33:00,38.0,19.0,29.78,WNW,288,4.0,9.0,46,0.00,,,0.01,,2013-03-23 00:33:00,
2013-03-22 20:42:00,38.0,19.0,29.78,WNW,284,6.0,11.0,46,0.00,,,0.01,,2013-03-23 00:42:00,
2013-03-22 20:52:00,38.0,19.0,29.78,WNW,284,6.0,11.0,46,0.00,,,0.01,,2013-03-23 00:52:00,
2013-03-22 21:03:00,38.0,19.0,29.79,WNW,290,6.0,12.0,46,0.00,,,0.01,,2013-03-23 01:03:00,
2013-03-22 21:12:00,38.0,19.0,29.79,WNW,290,6.0,12.0,46,0.00,,,0.01,,2013-03-23 01:12:00,
2013-03-22 21:22:00,38.0,19.0,29.79,WNW,284,9.0,14.0,46,0.00,,,0.01,,2013-03-23 01:22:00,
2013-03-22 21:32:00,38.0,20.0,29.79,WNW,303,7.0,13.0,47,0.00,,,0.01,,2013-03-23 01:32:00,
2013-03-22 21:42:00,38.0,20.0,29.79,WNW,303,7.0,13.0,47,0.00,,,0.01,,2013-03-23 01:42:00,
2013-03-22 21:52:00,37.0,19.0,29.79,NW,306,6.0,13.0,48,0.00,,,0.01,,2013-03-23 01:52:00,
2013-03-22 22:02:00,37.0,20.0,29.80,West,259,4.0,9.0,49,0.00,,,0.01,,2013-03-23 02:02:00,
2013-03-22 22:12:00,37.0,20.0,29.80,West,259,4.0,9.0,49,0.00,,,0.01,,2013-03-23 02:12:00,
2013-03-22 22:22:00,37.0,20.0,29.80,WNW,291,6.0,13.0,50,0.00,,,0.01,,2013-03-23 02:22:00,
2013-03-22 22:32:00,36.0,20.0,29.81,West,263,6.0,13.0,51,0.00,,,0.01,,2013-03-23 02:32:00,
2013-03-22 22:42:00,36.0,20.0,29.81,West,263,6.0,13.0,51,0.00,,,0.01,,2013-03-23 02:42:00,
2013-03-22 22:52:00,36.0,20.0,29.81,WNW,292,7.0,16.0,52,0.00,,,0.01,,2013-03-23 02:52:00,
2013-03-22 23:03:00,36.0,22.0,29.81,NNW,340,8.0,16.0,56,0.00,,,0.01,,2013-03-23 03:03:00,
2013-03-22 23:12:00,36.0,22.0,29.81,NNW,340,8.0,16.0,56,0.00,,,0.01,,2013-03-23 03:12:00,
2013-03-22 23:23:00,35.0,20.0,29.81,WNW,290,8.0,14.0,54,0.00,,,0.01,,2013-03-23 03:23:00,
2013-03-22 23:33:00,35.0,20.0,29.81,WNW,290,6.0,13.0,54,0.00,,,0.00,,2013-03-23 03:33:00,
2013-03-22 23:43:00,35.0,20.0,29.81,WNW,290,6.0,13.0,54,0.00,,,0.00,,2013-03-23 03:43:00,
2013-03-22 23:53:00,35.0,20.0,29.81,WNW,288,8.0,14.0,55,0.00,,,0.00,,2013-03-23 03:53:00,